Time,TemperatureF,DewpointF,PressureIn,WindDirection,WindDirectionDegrees,WindSpeedMPH,WindSpeedGustMPH,Humidity,HourlyPrecipIn,Conditions,Clouds,dailyrainin,SoftwareType,DateUTC
2013-08-01 00:00:00,78.0,-30.3,30.08,ESE,112,17.0,31.0,1,0.00,,,-99.99,Weather View 32 v70,2013-08-01 04:00:00,
2013-08-01 00:10:00,77.0,-30.9,30.08,ESE,112,16.0,31.0,1,0.00,,,-99.99,Weather View 32 v70,2013-08-01 04:10:00,
2013-08-01 00:20:00,77.0,-30.9,30.08,ESE,112,17.0,31.0,1,0.00,,,-99.99,Weather View 32 v70,2013-08-01 04:20:00,
2013-08-01 00:30:00,76.0,-31.5,30.08,ESE,112,15.0,31.0,1,0.00,,,-99.99,Weather View 32 v70,2013-08-01 04:30:00,
2013-08-01 00:40:00,76.0,-31.5,30.09,ESE,112,10.0,31.0,1,0.03,,,-99.99,Weather View 32 v70,2013-08-01 04:40:00,
2013-08-01 00:50:00,76.0,-31.5,30.09,East,90,7.0,31.0,1,0.04,,,-99.99,Weather View 32 v70,2013-08-01 04:50:00,
2013-08-01 01:00:00,76.0,-31.5,30.08,ENE,67,7.0,30.0,1,0.05,,,-99.99,Weather View 32 v70,2013-08-01 05:00:00,
2013-08-01 01:10:00,77.0,-30.9,30.08,ESE,112,4.0,30.0,1,0.06,,,-99.99,Weather View 32 v70,2013-08-01 05:10:00,
2013-08-01 01:20:00,77.0,-30.9,30.08,ESE,112,9.0,29.0,1,0.06,,,-99.99,Weather View 32 v70,2013-08-01 05:20:00,
2013-08-01 01:30:00,77.0,-30.9,30.07,ESE,112,7.0,22.0,1,0.06,,,-99.99,Weather View 32 v70,2013-08-01 05:30:00,
2013-08-01 01:40:00,78.0,-30.3,30.06,ESE,112,9.0,17.0,1,0.03,,,-99.99,Weather View 32 v70,2013-08-01 05:40:00,
2013-08-01 01:50:00,78.0,-30.3,30.06,ESE,112,19.0,19.0,1,0.02,,,-99.99,Weather View 32 v70,2013-08-01 05:50:00,
2013-08-01 02:00:00,78.0,-30.3,30.06,ESE,112,8.0,19.0,1,0.01,,,-99.99,Weather View 32 v70,2013-08-01 06:00:00,
2013-08-01 02:10:00,78.0,-30.3,30.05,ESE,112,8.0,19.0,1,0.00,,,-99.99,Weather View 32 v70,2013-08-01 06:10:00,
2013-08-01 02:20:00,78.0,-30.3,30.05,ESE,112,6.0,19.0,1,0.00,,,-99.99,Weather View 32 v70,2013-08-01 06:20:00,
2013-08-01 02:30:00,78.0,-30.3,30.04,East,90,4.0,19.0,1,0.00,,,-99.99,Weather View 32 v70,2013-08-01 06:30:00,
2013-08-01 02:40:00,79.0,-29.7,30.04,ESE,112,7.0,19.0,1,0.00,,,-99.99,Weather View 32 v70,2013-08-01 06:40:00,
2013-08-01 02:50:00,79.0,-29.7,30.04,ESE,112,7.0,19.0,1,0.00,,,-99.99,Weather View 32 v70,2013-08-01 06:50:00,
2013-08-01 03:00:00,78.0,-30.3,30.04,ESE,112,13.0,20.0,1,0.01,,,-99.99,Weather View 32 v70,2013-08-01 07:00:00,
2013-08-01 03:20:00,74.0,-32.7,30.06,ESE,112,16.0,30.0,1,0.03,,,-99.99,Weather View 32 v70,2013-08-01 07:20:00,
2013-08-01 03:30:00,73.0,-33.3,30.07,ESE,112,13.0,30.0,1,0.06,,,-99.99,Weather View 32 v70,2013-08-01 07:30:00,
2013-08-01 03:40:00,72.0,-33.9,30.07,ESE,112,14.0,30.0,1,0.06,,,-99.99,Weather View 32 v70,2013-08-01 07:40:00,
2013-08-01 03:50:00,73.0,-33.3,30.07,ESE,112,13.0,30.0,1,0.06,,,-99.99,Weather View 32 v70,2013-08-01 07:50:00,
2013-08-01 04:00:00,73.0,-33.3,30.08,ESE,112,17.0,30.0,1,0.05,,,-99.99,Weather View 32 v70,2013-08-01 08:00:00,
2013-08-01 04:10:00,73.0,-33.3,30.08,ESE,112,10.0,24.0,1,0.04,,,-99.99,Weather View 32 v70,2013-08-01 08:10:00,
2013-08-01 04:40:00,74.0,-32.7,30.07,ESE,112,14.0,24.0,1,0.00,,,-99.99,Weather View 32 v70,2013-08-01 08:40:00,
2013-08-01 04:50:00,75.0,-32.1,30.08,ESE,112,11.0,24.0,1,0.00,,,-99.99,Weather View 32 v70,2013-08-01 08:50:00,
2013-08-01 05:00:00,75.0,-32.1,30.07,ESE,112,7.0,20.0,1,0.00,,,-99.99,Weather View 32 v70,2013-08-01 09:00:00,
2013-08-01 05:10:00,74.0,-32.7,30.07,ESE,112,7.0,19.0,1,0.00,,,-99.99,Weather View 32 v70,2013-08-01 09:10:00,
2013-08-01 05:40:00,76.0,-31.5,30.08,ESE,112,11.0,17.0,1,0.02,,,-99.99,Weather View 32 v70,2013-08-01 09:40:00,
2013-08-01 06:00:00,76.0,-31.5,30.09,ESE,112,9.0,17.0,1,0.02,,,-99.99,Weather View 32 v70,2013-08-01 10:00:00,
2013-08-01 07:00:00,76.0,-31.5,30.10,East,90,8.0,20.0,1,0.02,,,-99.99,Weather View 32 v70,2013-08-01 11:00:00,
2013-08-01 07:10:00,76.0,-31.5,30.10,East,90,12.0,20.0,1,0.02,,,-99.99,Weather View 32 v70,2013-08-01 11:10:00,
2013-08-01 07:30:00,76.0,-31.5,30.12,East,90,10.0,20.0,1,0.01,,,-99.99,Weather View 32 v70,2013-08-01 11:30:00,
2013-08-01 08:00:00,76.0,-31.5,30.12,ESE,112,10.0,20.0,1,0.01,,,-99.99,Weather View 32 v70,2013-08-01 12:00:00,
2013-08-01 08:10:00,76.0,-31.5,30.12,ESE,112,5.0,17.0,1,0.00,,,-99.99,Weather View 32 v70,2013-08-01 12:10:00,
2013-08-01 08:30:00,76.0,-31.5,30.12,ESE,112,4.0,17.0,1,0.00,,,-99.99,Weather View 32 v70,2013-08-01 12:30:00,
2013-08-01 08:40:00,77.0,-30.9,30.11,ESE,112,7.0,19.0,1,0.00,,,-99.99,Weather View 32 v70,2013-08-01 12:40:00,
2013-08-01 08:50:00,77.0,-30.9,30.11,ESE,112,16.0,19.0,1,0.00,,,-99.99,Weather View 32 v70,2013-08-01 12:50:00,
2013-08-01 09:00:00,77.0,-30.9,30.11,ESE,112,10.0,19.0,1,0.00,,,-99.99,Weather View 32 v70,2013-08-01 13:00:00,
2013-08-01 09:30:00,77.0,-30.9,30.12,ESE,112,9.0,19.0,1,0.00,,,-99.99,Weather View 32 v70,2013-08-01 13:30:00,
2013-08-01 09:50:00,77.0,-30.9,30.12,ESE,112,6.0,18.0,1,0.00,,,-99.99,Weather View 32 v70,2013-08-01 13:50:00,
2013-08-01 10:10:00,76.0,-31.5,30.14,ESE,112,4.0,18.0,1,0.01,,,-99.99,Weather View 32 v70,2013-08-01 14:10:00,
2013-08-01 10:20:00,76.0,-31.5,30.14,ESE,112,7.0,18.0,1,0.01,,,-99.99,Weather View 32 v70,2013-08-01 14:20:00,
2013-08-01 10:30:00,76.0,-31.5,30.14,ESE,112,6.0,14.0,1,0.01,,,-99.99,Weather View 32 v70,2013-08-01 14:30:00,
2013-08-01 10:40:00,77.0,-30.9,30.12,ESE,112,6.0,13.0,1,0.01,,,-99.99,Weather View 32 v70,2013-08-01 14:40:00,
2013-08-01 11:10:00,77.0,-30.9,30.10,ESE,112,10.0,13.0,1,0.02,,,-99.99,Weather View 32 v70,2013-08-01 15:10:00,
2013-08-01 11:20:00,77.0,-30.9,30.10,ESE,112,17.0,17.0,1,0.03,,,-99.99,Weather View 32 v70,2013-08-01 15:20:00,
2013-08-01 11:30:00,77.0,-30.9,30.11,ESE,112,7.0,18.0,1,0.03,,,-99.99,Weather View 32 v70,2013-08-01 15:30:00,
2013-08-01 11:50:00,76.0,-31.5,30.12,ESE,112,7.0,20.0,1,0.02,,,-99.99,Weather View 32 v70,2013-08-01 15:50:00,
2013-08-01 12:00:00,76.0,-31.5,30.12,ESE,112,10.0,20.0,1,0.02,,,-99.99,Weather View 32 v70,2013-08-01 16:00:00,
2013-08-01 12:10:00,76.0,-31.5,30.13,ESE,112,6.0,20.0,1,0.01,,,-99.99,Weather View 32 v70,2013-08-01 16:10:00,
2013-08-01 12:20:00,76.0,-31.5,30.14,ESE,112,6.0,20.0,1,0.00,,,-99.99,Weather View 32 v70,2013-08-01 16:20:00,
2013-08-01 12:30:00,77.0,-30.9,30.13,East,90,5.0,20.0,1,0.00,,,-99.99,Weather View 32 v70,2013-08-01 16:30:00,
2013-08-01 13:20:00,79.0,-29.7,30.09,ESE,112,6.0,15.0,1,0.00,,,-99.99,Weather View 32 v70,2013-08-01 17:20:00,
2013-08-01 13:30:00,80.0,-29.1,30.09,ESE,112,2.0,12.0,1,0.00,,,-99.99,Weather View 32 v70,2013-08-01 17:30:00,
2013-08-01 13:40:00,81.0,-28.5,30.09,East,90,2.0,13.0,1,0.00,,,-99.99,Weather View 32 v70,2013-08-01 17:40:00,
2013-08-01 14:00:00,81.0,-28.5,30.08,ESE,112,4.0,13.0,1,0.00,,,-99.99,Weather View 32 v70,2013-08-01 18:00:00,
2013-08-01 14:40:00,82.0,-27.9,30.06,ESE,112,6.0,13.0,1,0.00,,,-99.99,Weather View 32 v70,2013-08-01 18:40:00,
2013-08-01 14:50:00,82.0,-27.9,30.07,ESE,112,2.0,13.0,1,0.00,,,-99.99,Weather View 32 v70,2013-08-01 18:50:00,
2013-08-01 15:00:00,81.0,-28.5,30.07,East,90,10.0,14.0,1,0.00,,,-99.99,Weather View 32 v70,2013-08-01 19:00:00,
2013-08-01 15:10:00,80.0,-29.1,30.07,East,90,9.0,14.0,1,0.00,,,-99.99,Weather View 32 v70,2013-08-01 19:10:00,
2013-08-01 15:20:00,80.0,-29.1,30.08,East,90,3.0,14.0,1,0.00,,,-99.99,Weather View 32 v70,2013-08-01 19:20:00,
2013-08-01 15:30:00,80.0,-29.1,30.08,ESE,112,4.0,14.0,1,0.00,,,-99.99,Weather View 32 v70,2013-08-01 19:30:00,
2013-08-01 15:40:00,81.0,-28.5,30.07,ESE,112,5.0,14.0,1,0.00,,,-99.99,Weather View 32 v70,2013-08-01 19:40:00,
2013-08-01 15:50:00,81.0,-28.5,30.07,ESE,112,5.0,14.0,1,0.00,,,-99.99,Weather View 32 v70,2013-08-01 19:50:00,
2013-08-01 16:10:00,81.0,-28.5,30.06,East,90,9.0,14.0,1,0.00,,,-99.99,Weather View 32 v70,2013-08-01 20:10:00,
2013-08-01 16:20:00,80.0,-29.1,30.06,ESE,112,6.0,11.0,1,0.00,,,-99.99,Weather View 32 v70,2013-08-01 20:20:00,
2013-08-01 16:30:00,81.0,-28.5,30.06,ESE,112,4.0,11.0,1,0.00,,,-99.99,Weather View 32 v70,2013-08-01 20:30:00,
2013-08-01 16:40:00,81.0,-28.5,30.06,ESE,112,5.0,11.0,1,0.00,,,-99.99,Weather View 32 v70,2013-08-01 20:40:00,
2013-08-01 16:50:00,81.0,-28.5,30.06,ESE,112,6.0,11.0,1,0.00,,,-99.99,Weather View 32 v70,2013-08-01 20:50:00,
2013-08-01 17:00:00,81.0,-28.5,30.06,ESE,112,8.0,14.0,1,0.00,,,-99.99,Weather View 32 v70,2013-08-01 21:00:00,
2013-08-01 17:20:00,81.0,-28.5,30.06,ESE,112,3.0,14.0,1,0.00,,,-99.99,Weather View 32 v70,2013-08-01 21:20:00,
2013-08-01 17:30:00,81.0,-28.5,30.06,ESE,112,2.0,14.0,1,0.00,,,-99.99,Weather View 32 v70,2013-08-01 21:30:00,
2013-08-01 17:50:00,81.0,-28.5,30.06,ESE,112,6.0,14.0,1,0.00,,,-99.99,Weather View 32 v70,2013-08-01 21:50:00,
2013-08-01 18:10:00,80.0,-29.1,30.08,East,90,2.0,13.0,1,0.00,,,-99.99,Weather View 32 v70,2013-08-01 22:10:00,
2013-08-01 18:20:00,80.0,-29.1,30.08,East,90,6.0,12.0,1,0.00,,,-99.99,Weather View 32 v70,2013-08-01 22:20:00,
2013-08-01 19:00:00,80.0,-29.1,30.08,ESE,112,2.0,13.0,1,0.00,,,-99.99,Weather View 32 v70,2013-08-01 23:00:00,
2013-08-01 19:10:00,79.0,-29.7,30.08,ESE,112,9.0,13.0,1,0.00,,,-99.99,Weather View 32 v70,2013-08-01 23:10:00,
2013-08-01 19:20:00,79.0,-29.7,30.08,ESE,112,6.0,13.0,1,0.00,,,-99.99,Weather View 32 v70,2013-08-01 23:20:00,
2013-08-01 19:30:00,80.0,-29.1,30.08,ESE,112,8.0,13.0,1,0.00,,,-99.99,Weather View 32 v70,2013-08-01 23:30:00,
2013-08-01 19:40:00,80.0,-29.1,30.08,ESE,112,7.0,13.0,1,0.00,,,-99.99,Weather View 32 v70,2013-08-01 23:40:00,
2013-08-01 20:12:00,80.0,-29.1,30.08,ESE,112,2.0,10.0,1,0.00,,,-99.99,Weather View 32 v70,2013-08-02 00:12:00,
2013-08-01 20:20:00,80.0,-29.1,30.09,ESE,112,6.0,14.0,1,0.00,,,-99.99,Weather View 32 v70,2013-08-02 00:20:00,
2013-08-01 20:30:00,80.0,-29.1,30.10,ESE,112,7.0,14.0,1,0.00,,,-99.99,Weather View 32 v70,2013-08-02 00:30:00,
2013-08-01 20:50:00,80.0,-29.1,30.11,ESE,112,5.0,14.0,1,0.00,,,-99.99,Weather View 32 v70,2013-08-02 00:50:00,
2013-08-01 21:00:00,80.0,-29.1,30.11,ESE,112,5.0,14.0,1,0.00,,,-99.99,Weather View 32 v70,2013-08-02 01:00:00,
2013-08-01 21:12:00,80.0,-29.1,30.08,ESE,112,8.0,13.0,1,0.00,,,-99.99,Weather View 32 v70,2013-08-02 01:12:00,
2013-08-01 21:20:00,80.0,-29.1,30.11,ESE,112,5.0,12.0,1,0.00,,,-99.99,Weather View 32 v70,2013-08-02 01:20:00,
2013-08-01 21:40:00,80.0,-29.1,30.12,ESE,112,5.0,12.0,1,0.00,,,-99.99,Weather View 32 v70,2013-08-02 01:40:00,
2013-08-01 21:50:00,80.0,-29.1,30.12,ESE,112,5.0,12.0,1,0.00,,,-99.99,Weather View 32 v70,2013-08-02 01:50:00,
2013-08-01 22:00:00,80.0,-29.1,30.12,ESE,112,5.0,12.0,1,0.00,,,-99.99,Weather View 32 v70,2013-08-02 02:00:00,
2013-08-01 22:20:00,80.0,-29.1,30.12,East,90,6.0,12.0,1,0.00,,,-99.99,Weather View 32 v70,2013-08-02 02:20:00,
2013-08-01 22:30:00,80.0,-29.1,30.11,ESE,112,3.0,12.0,1,0.00,,,-99.99,Weather View 32 v70,2013-08-02 02:30:00,
2013-08-01 22:40:00,80.0,-29.1,30.12,ESE,112,9.0,12.0,1,0.00,,,-99.99,Weather View 32 v70,2013-08-02 02:40:00,
2013-08-01 22:50:00,80.0,-29.1,30.12,ESE,112,10.0,15.0,1,0.00,,,-99.99,Weather View 32 v70,2013-08-02 02:50:00,
2013-08-01 22:52:00,80.0,-29.1,30.11,ESE,112,6.0,12.0,1,0.00,,,-99.99,Weather View 32 v70,2013-08-02 02:52:00,
2013-08-01 23:00:00,80.0,-29.1,30.11,East,90,5.0,15.0,1,0.00,,,-99.99,Weather View 32 v70,2013-08-02 03:00:00,
2013-08-01 23:10:00,80.0,-29.1,30.11,ESE,112,6.0,15.0,1,0.00,,,-99.99,Weather View 32 v70,2013-08-02 03:10:00,
2013-08-01 23:20:00,80.0,-29.1,30.10,ESE,112,8.0,15.0,1,0.00,,,-99.99,Weather View 32 v70,2013-08-02 03:20:00,
2013-08-01 23:30:00,80.0,-29.1,30.10,ESE,112,11.0,15.0,1,0.00,,,-99.99,Weather View 32 v70,2013-08-02 03:30:00,
2013-08-01 23:32:00,80.0,-29.1,30.11,ESE,112,7.0,12.0,1,0.00,,,-99.99,Weather View 32 v70,2013-08-02 03:32:00,
2013-08-01 23:40:00,80.0,-29.1,30.09,ESE,112,6.0,16.0,1,0.00,,,-99.99,Weather View 32 v70,2013-08-02 03:40:00,
2013-08-01 23:50:00,80.0,-29.1,30.09,ESE,112,10.0,16.0,1,0.00,,,-99.99,Weather View 32 v70,2013-08-02 03:50:00,